FW3222 Weather Reports


time (UTC)temp
F
wind
direction
speed
knots
gust
knots
rain 1hr
in
rain 24hr
in
rain mn
in
humidity
%
barometer
mb
20260507111144 50 287 0.0 4.3 0.00 0.29 0.00 40 1013.7
20260507110840 50 327 0.0 4.3 0.00 0.29 0.00 39 1013.7
20260507110539 50 338 0.0 4.3 0.00 0.29 0.00 40 1013.6
20260507110229 50 341 0.0 4.3 0.00 0.29 0.00 41 1013.7
20260507105927 50 62 0.0 3.5 0.00 0.29 0.00 39 1013.5
20260507104738 50 241 0.0 2.6 0.00 0.29 0.00 42 1013.4
20260507104006 50 290 0.0 2.6 0.00 0.29 0.00 44 1013.3
20260507103706 50 321 0.0 4.3 0.00 0.29 0.00 42 1013.3
20260507103352 50 17 0.0 4.3 0.00 0.29 0.00 42 1013.3
20260507103052 50 22 0.0 4.3 0.00 0.29 0.00 42 1013.2
20260507102739 50 30 0.0 0.9 0.00 0.29 0.00 43 1013.1
20260507102442 50 330 0.0 0.9 0.00 0.29 0.00 42 1013.2
20260507102136 50 347 0.0 0.9 0.00 0.29 0.00 44 1013.1
20260507101838 50 347 0.0 0.9 0.00 0.29 0.00 42 1013.2
20260507101542 50 11 0.0 0.9 0.00 0.29 0.00 42 1013.2
20260507101240 50 313 0.0 0.9 0.00 0.29 0.00 42 1013.1
20260507100938 50 313 0.0 0.9 0.00 0.29 0.00 43 1013.0
20260507100639 51 304 0.9 1.7 0.00 0.29 0.00 42 1013.0
20260507100330 51 294 0.0 1.7 0.00 0.29 0.00 42 1012.8
20260507100032 51 288 0.0 4.3 0.00 0.29 0.00 43 1012.8
20260507095724 50 328 0.0 4.3 0.00 0.29 0.00 41 1012.9
20260507095414 51 11 0.0 0.0 0.00 0.29 0.00 43 1013.0
20260507095118 51 13 0.0 2.6 0.00 0.29 0.00 42 1013.0
20260507094803 51 311 0.0 1.7 0.00 0.29 0.00 43 1012.8
20260507094503 51 288 0.0 1.7 0.00 0.29 0.00 43 1012.8
20260507094201 51 310 0.0 0.0 0.00 0.29 0.00 43 1012.8
20260507093900 51 304 0.9 5.2 0.00 0.29 0.00 43 1012.7
20260507093602 51 307 0.9 5.2 0.00 0.29 0.00 43 1012.7
20260507093259 51 282 0.9 5.2 0.00 0.29 0.00 43 1012.8
20260507092951 50 292 0.9 5.2 0.00 0.29 0.00 43 1012.8
20260507092228 51 324 0.0 5.2 0.00 0.29 0.00 44 1012.5
20260507091922 51 24 0.0 5.2 0.00 0.29 0.00 45 1012.5
20260507091618 51 248 0.0 2.6 0.00 0.29 0.00 44 1012.5
20260507091313 51 271 0.0 2.6 0.00 0.29 0.00 44 1012.4
20260507091002 51 343 0.0 2.6 0.00 0.29 0.00 43 1012.5
20260507090651 51 307 0.0 1.7 0.00 0.29 0.00 44 1012.4
20260507085933 51 278 0.0 5.2 0.00 0.29 0.00 44 1012.3
20260507084748 51 325 0.9 4.3 0.00 0.29 0.00 45 1012.4
20260507084449 51 270 0.9 4.3 0.00 0.29 0.00 45 1012.3
20260507083720 51 348 0.0 4.3 0.00 0.29 0.00 46 1012.3
20260507083412 51 21 0.0 4.3 0.00 0.29 0.00 47 1012.5
20260507082651 51 337 0.0 0.0 0.00 0.29 0.00 48 1012.3
20260507082355 52 336 0.0 0.0 0.00 0.29 0.00 47 1012.3
20260507081207 52 355 0.0 0.0 0.00 0.29 0.00 49 1012.3
20260507080908 52 291 0.0 0.0 0.00 0.29 0.00 46 1012.4
20260507080611 52 291 0.0 0.0 0.00 0.29 0.00 47 1012.4
20260507080309 52 11 0.0 1.7 0.00 0.29 0.00 49 1012.5
20260507080007 52 42 0.0 1.7 0.00 0.29 0.00 49 1012.4
20260507075708 52 19 0.0 1.7 0.00 0.29 0.00 47 1012.4
20260507075402 52 38 0.0 0.9 0.00 0.29 0.00 48 1012.5
20260507075054 52 5 0.0 0.0 0.00 0.29 0.00 48 1012.4
20260507074758 52 51 0.0 0.0 0.00 0.29 0.00 51 1012.4
20260507074032 52 61 0.0 0.0 0.00 0.29 0.00 49 1012.4
20260507073726 52 78 0.0 0.0 0.00 0.29 0.00 49 1012.3
20260507073423 52 36 0.0 1.7 0.00 0.29 0.00 50 1012.4
20260507073125 52 38 0.0 1.7 0.00 0.29 0.00 51 1012.4
20260507072820 52 40 0.0 1.7 0.00 0.29 0.00 48 1012.5
20260507072515 52 11 0.0 5.2 0.00 0.29 0.00 47 1012.5
20260507072210 52 0 0.0 5.2 0.00 0.29 0.00 48 1012.5
20260507071453 52 48 0.0 5.2 0.00 0.29 0.00 49 1012.4
20260507071156 52 239 0.0 5.2 0.00 0.29 0.00 49 1012.5
20260507070855 52 355 0.0 5.2 0.00 0.29 0.00 49 1012.4
20260507070542 52 0 0.0 2.6 0.00 0.29 0.00 50 1012.3
20260507070244 52 82 0.0 0.0 0.00 0.29 0.00 51 1012.3
20260507065940 52 197 0.9 5.2 0.00 0.29 0.00 51 1012.4
20260507065627 52 0 0.0 5.2 0.00 0.29 0.00 52 1012.4
20260507065331 52 355 0.9 5.2 0.00 0.29 0.00 51 1012.4
20260507065035 52 15 0.0 3.5 0.00 0.29 0.00 52 1012.4
20260507064727 53 345 0.9 3.5 0.00 0.29 0.00 52 1012.4
20260507064431 52 309 0.9 3.5 0.00 0.29 0.00 51 1012.5
20260507064135 52 265 0.9 5.2 0.00 0.29 0.00 52 1012.5
20260507063826 53 335 0.9 5.2 0.00 0.29 0.00 52 1012.3
20260507063530 53 309 0.9 5.2 0.00 0.29 0.00 54 1012.3
20260507063220 53 344 0.9 7.8 0.00 0.29 0.00 54 1012.3
20260507062914 53 242 0.9 7.8 0.00 0.29 0.00 55 1012.4
20260507062603 53 16 1.7 7.8 0.00 0.29 0.00 56 1012.3
20260507062300 53 0 2.6 7.8 0.00 0.29 0.00 56 1012.4
20260507062004 53 34 2.6 7.8 0.00 0.29 0.00 56 1012.5
20260507061652 53 311 1.7 7.8 0.00 0.29 0.00 57 1012.3
20260507060912 53 293 0.9 6.1 0.00 0.29 0.00 61 1012.3
20260507060609 53 310 0.9 6.1 0.00 0.29 0.00 62 1012.3
20260507060306 54 344 0.9 6.1 0.00 0.29 0.00 62 1012.3
20260507060003 54 340 1.7 6.1 0.00 0.29 0.00 63 1012.3
20260507054808 54 287 0.9 6.1 0.00 0.29 0.00 62 1012.3
20260507054458 54 351 0.9 6.1 0.00 0.29 0.00 62 1012.3
20260507054146 53 271 0.9 6.1 0.00 0.29 0.00 62 1012.3
20260507053415 53 298 0.9 6.1 0.00 0.29 0.00 63 1012.3
20260507053118 54 312 0.9 3.5 0.00 0.29 0.00 64 1012.4
20260507052402 54 355 0.0 3.5 0.00 0.29 0.00 65 1012.3
20260507052053 54 294 0.0 0.9 0.00 0.29 0.00 66 1012.4
20260507051740 54 298 0.0 1.7 0.00 0.29 0.00 66 1012.4
20260507051438 54 297 0.0 1.7 0.00 0.29 0.00 66 1012.3
20260507051140 54 298 0.0 0.9 0.00 0.29 0.00 66 1012.2
20260507050840 54 275 0.0 0.9 0.00 0.29 0.00 65 1012.2
20260507050540 54 277 0.0 0.0 0.00 0.29 0.00 65 1012.1
20260507050228 54 244 0.0 2.6 0.00 0.29 0.00 65 1012.3
20260507045507 55 275 0.9 4.3 0.00 0.29 0.00 65 1012.3
20260507045154 55 234 0.0 4.3 0.00 0.29 0.00 63 1012.1
20260507044014 55 343 0.9 3.5 0.00 0.29 0.00 63 1012.2
20260507043714 55 17 0.9 3.5 0.00 0.29 0.00 62 1012.2
20260507043415 55 350 0.9 3.5 0.00 0.29 0.00 61 1012.3
20260507043104 55 325 0.9 3.5 0.00 0.29 0.00 61 1012.5
20260507042758 55 333 0.9 3.5 0.00 0.29 0.00 61 1012.5
20260507042453 55 355 0.9 3.5 0.00 0.29 0.00 61 1012.6
20260507042140 55 312 0.9 6.1 0.00 0.29 0.00 62 1012.6
20260507041833 56 323 0.9 6.1 0.00 0.29 0.00 62 1012.6
20260507041105 56 15 0.9 6.1 0.00 0.29 0.00 61 1012.3
20260507040806 56 261 0.9 6.1 0.00 0.29 0.00 60 1012.4
20260507040456 56 347 0.9 6.1 0.00 0.29 0.00 60 1012.3
20260507035738 56 319 0.9 0.0 0.00 0.29 0.28 61 1012.4
20260507035426 56 324 0.9 4.3 0.00 0.29 0.28 60 1012.3
20260507035126 56 279 0.0 2.6 0.00 0.29 0.28 60 1012.4
20260507034829 56 294 0.0 2.6 0.00 0.29 0.28 60 1012.4
20260507034526 56 267 0.0 2.6 0.00 0.29 0.28 60 1012.5
20260507034215 56 23 0.0 2.6 0.00 0.29 0.28 60 1012.4
20260507033446 56 264 0.0 4.3 0.00 0.29 0.28 60 1012.3
20260507032306 56 264 0.9 4.3 0.00 0.29 0.28 60 1012.4
20260507031957 56 280 0.9 2.6 0.00 0.29 0.28 60 1012.3
20260507031221 56 295 1.7 7.8 0.00 0.29 0.28 60 1012.3
20260507030908 56 336 0.9 7.8 0.00 0.29 0.28 60 1012.1
20260507030610 56 279 0.9 4.3 0.00 0.29 0.28 59 1011.8
20260507030311 56 301 0.0 3.5 0.00 0.29 0.28 60 1011.7
20260507030005 56 319 0.0 3.5 0.00 0.29 0.28 60 1011.8
20260507025650 56 222 0.0 3.5 0.00 0.29 0.28 59 1011.8
20260507025348 56 326 0.0 3.5 0.00 0.29 0.28 60 1011.8
20260507024633 57 0 0.9 3.5 0.00 0.29 0.28 60 1012.0
20260507024337 57 345 0.9 3.5 0.00 0.29 0.28 60 1012.1
20260507024029 57 319 0.9 3.5 0.00 0.29 0.28 60 1011.6
20260507023716 57 0 0.0 3.5 0.00 0.29 0.28 61 1011.5
20260507023418 57 26 0.0 3.5 0.00 0.29 0.28 61 1011.7
20260507022701 57 335 0.0 4.3 0.00 0.29 0.28 62 1012.0
20260507022359 57 328 0.0 4.3 0.00 0.29 0.28 62 1012.0
20260507022058 57 342 0.9 4.3 0.00 0.29 0.28 62 1011.9
20260507021748 57 15 0.9 9.6 0.00 0.29 0.28 62 1012.0
20260507021446 57 271 0.9 9.6 0.00 0.29 0.28 62 1011.9
20260507021141 57 297 1.7 9.6 0.00 0.29 0.28 62 1011.8
20260507020835 57 317 2.6 9.6 0.00 0.29 0.28 62 1011.5
20260507020528 57 331 2.6 9.6 0.00 0.29 0.28 62 1011.6
20260507015757 58 350 2.6 7.8 0.00 0.29 0.28 63 1011.6
20260507015501 58 349 2.6 7.8 0.00 0.29 0.28 62 1011.6
20260507014727 58 346 2.6 7.8 0.00 0.29 0.28 63 1011.5
20260507014429 58 311 1.7 8.7 0.00 0.29 0.28 62 1011.6
20260507014126 58 300 1.7 8.7 0.00 0.29 0.28 63 1011.8
20260507013828 58 308 1.7 8.7 0.00 0.29 0.28 63 1011.6
20260507013530 58 325 1.7 10.4 0.00 0.29 0.28 62 1011.5
20260507013227 58 242 2.6 10.4 0.00 0.29 0.28 62 1011.3
20260507012926 58 305 2.6 10.4 0.00 0.29 0.28 62 1011.4
20260507012619 58 355 2.6 10.4 0.00 0.29 0.28 62 1011.6
20260507012319 59 274 2.6 10.4 0.00 0.29 0.28 62 1011.5
20260507012009 59 308 2.6 10.4 0.00 0.29 0.28 62 1011.5
20260507011707 59 338 2.6 10.4 0.00 0.29 0.28 62 1011.6
20260507011410 59 331 2.6 7.0 0.00 0.29 0.28 63 1011.4
20260507011104 59 342 2.6 7.0 0.00 0.29 0.28 63 1011.5
20260507010342 59 316 1.7 7.0 0.00 0.29 0.28 62 1011.6
20260507005614 60 311 0.9 6.1 0.00 0.29 0.28 62 1011.4
20260507005306 60 346 0.9 6.1 0.00 0.29 0.28 61 1011.3
20260507004953 60 331 0.9 6.1 0.00 0.29 0.28 61 1011.3
20260507004230 60 344 0.9 7.0 0.00 0.29 0.28 61 1011.2
20260507003924 61 26 0.9 7.0 0.00 0.29 0.28 62 1011.1
20260507003614 61 173 1.7 7.0 0.00 0.29 0.28 62 1011.0
20260507002857 61 295 0.9 7.0 0.00 0.29 0.28 61 1010.9
20260507002126 61 291 0.0 7.0 0.00 0.29 0.28 61 1011.1
20260507001821 62 192 0.9 7.0 0.00 0.29 0.28 60 1011.0
20260507001523 62 243 0.9 7.0 0.00 0.29 0.28 60 1010.9
20260507001222 62 279 0.9 9.6 0.00 0.29 0.28 60 1010.6
20260507000915 62 304 0.9 9.6 0.00 0.29 0.28 60 1010.4
20260507000615 62 310 1.7 9.6 0.00 0.29 0.28 60 1010.3
20260507000321 62 168 2.6 9.6 0.00 0.29 0.28 59 1010.2
20260507000012 62 278 1.7 9.6 0.00 0.29 0.28 59 1010.2
20260506235713 62 277 1.7 9.6 0.00 0.29 0.28 59 1010.1
20260506235402 62 286 2.6 9.6 0.00 0.29 0.28 59 1010.0
20260506235101 62 273 2.6 9.6 0.00 0.29 0.28 59 1010.0
20260506234754 62 280 2.6 9.6 0.00 0.29 0.28 59 1009.9
20260506234445 62 281 2.6 7.8 0.00 0.29 0.28 59 1009.7
20260506234132 62 284 2.6 7.8 0.00 0.29 0.28 59 1009.6
20260506233822 62 204 2.6 7.8 0.00 0.29 0.28 59 1009.7
20260506233526 63 310 1.7 7.8 0.00 0.29 0.28 59 1009.7
20260506233221 63 248 1.7 7.8 0.00 0.29 0.28 59 1009.4
20260506232918 63 260 1.7 7.0 0.00 0.29 0.28 59 1009.4
20260506232608 63 264 1.7 5.2 0.00 0.29 0.28 59 1009.3
20260506232300 63 223 1.7 5.2 0.00 0.29 0.28 60 1009.2
20260506231950 63 285 0.9 8.7 0.00 0.29 0.28 60 1009.2
20260506231641 63 297 0.9 8.7 0.00 0.29 0.28 59 1009.3
20260506231334 63 281 1.7 8.7 0.00 0.29 0.28 59 1009.3
20260506231033 64 299 2.6 8.7 0.00 0.29 0.28 59 1009.2
20260506230720 64 277 3.5 8.7 0.00 0.29 0.28 59 1009.4
20260506230415 64 340 3.5 8.7 0.00 0.29 0.28 59 1009.4
20260506230111 64 275 2.6 7.8 0.00 0.29 0.28 59 1009.3
20260506225809 64 284 1.7 10.4 0.00 0.29 0.28 61 1009.3
20260506225457 64 284 2.6 10.4 0.00 0.29 0.28 61 1009.2
20260506225159 65 274 3.5 10.4 0.00 0.29 0.28 61 1009.2
20260506224442 65 318 4.3 10.4 0.00 0.29 0.28 60 1009.2
20260506224145 65 294 3.5 10.4 0.00 0.29 0.28 61 1009.0
20260506223844 65 275 3.5 9.6 0.00 0.29 0.28 60 1009.0
20260506223543 66 279 3.5 9.6 0.00 0.29 0.28 60 1009.0
20260506222819 66 275 3.5 7.0 0.00 0.29 0.28 61 1008.8
20260506222511 66 296 2.6 7.0 0.00 0.29 0.28 61 1008.8
20260506222159 67 312 2.6 8.7 0.00 0.29 0.28 62 1008.8
20260506221858 67 257 2.6 8.7 0.00 0.29 0.28 62 1008.5
20260506221602 67 303 2.6 8.7 0.00 0.29 0.28 62 1008.5
20260506221303 67 275 3.5 8.7 0.00 0.29 0.28 62 1008.5
20260506221005 67 316 2.6 8.7 0.00 0.29 0.28 62 1008.4
20260506220249 67 225 1.7 5.2 0.00 0.29 0.28 64 1008.3
20260506215951 67 336 1.7 5.2 0.00 0.29 0.28 64 1008.2
20260506215656 67 248 1.7 7.8 0.00 0.29 0.28 64 1008.1
20260506215343 67 73 1.7 7.8 0.00 0.29 0.28 64 1008.0
20260506215041 67 167 1.7 7.8 0.00 0.29 0.28 64 1008.1
20260506214730 67 227 1.7 7.8 0.00 0.29 0.28 64 1008.1
20260506214433 67 277 1.7 7.8 0.00 0.29 0.28 64 1008.0
20260506213655 67 271 1.7 7.0 0.00 0.29 0.28 64 1007.9
20260506212517 68 256 1.7 6.1 0.00 0.29 0.28 64 1007.7
20260506212220 68 347 1.7 6.1 0.00 0.29 0.28 64 1007.7
20260506211914 68 217 0.9 6.1 0.00 0.29 0.28 64 1007.5
20260506211610 68 301 1.7 6.1 0.00 0.29 0.28 64 1007.6
20260506211306 68 5 1.7 6.1 0.00 0.29 0.28 64 1007.5
20260506210551 68 171 0.9 4.3 0.00 0.29 0.28 65 1007.5
20260506210254 68 215 0.9 5.2 0.00 0.29 0.28 65 1007.4
20260506205532 67 209 0.9 5.2 0.00 0.29 0.28 64 1007.3
20260506205226 68 221 0.9 5.2 0.00 0.29 0.28 64 1007.4
20260506204924 68 251 0.9 5.2 0.00 0.29 0.28 65 1007.3
20260506204621 68 202 0.0 5.2 0.00 0.29 0.28 64 1007.2
20260506204318 68 254 0.0 5.2 0.00 0.29 0.28 65 1007.4
20260506204006 68 217 0.9 5.2 0.00 0.29 0.28 65 1007.4
20260506203652 68 227 0.9 5.2 0.00 0.29 0.28 64 1007.3
20260506203343 68 223 1.7 5.2 0.00 0.29 0.28 64 1007.2
20260506203041 68 218 1.7 7.8 0.00 0.29 0.28 64 1007.2
20260506202740 68 228 1.7 7.8 0.00 0.29 0.28 64 1007.3
20260506202025 68 253 1.7 9.6 0.00 0.29 0.28 64 1007.2
20260506201714 68 282 1.7 9.6 0.00 0.29 0.28 64 1007.2
20260506201417 68 275 2.6 9.6 0.00 0.29 0.28 64 1007.2
20260506201105 68 257 2.6 9.6 0.00 0.29 0.28 65 1007.3
20260506200804 68 33 3.5 9.6 0.00 0.29 0.28 64 1007.2
20260506200455 68 273 2.6 9.6 0.00 0.29 0.28 64 1007.3
20260506200146 68 297 2.6 8.7 0.00 0.29 0.28 64 1007.3
20260506195836 68 211 2.6 8.7 0.00 0.29 0.28 64 1007.3
20260506195056 68 234 2.6 8.7 0.00 0.29 0.28 66 1007.2
20260506194327 67 263 1.7 11.3 0.00 0.29 0.28 66 1007.2
20260506193553 66 126 2.6 11.3 0.00 0.29 0.28 66 1007.4
20260506192825 65 184 2.6 11.3 0.00 0.29 0.28 67 1007.6
20260506192106 65 169 1.7 7.0 0.00 0.29 0.28 67 1007.7
20260506191757 65 215 1.7 6.1 0.00 0.29 0.28 67 1007.7
20260506191450 65 222 1.7 6.1 0.00 0.29 0.28 67 1007.7
20260506191136 65 222 1.7 7.8 0.00 0.29 0.28 67 1007.8
20260506190833 64 248 1.7 7.8 0.00 0.29 0.28 68 1007.7
20260506190523 64 257 1.7 7.8 0.00 0.29 0.28 68 1007.7
20260506190216 64 298 1.7 7.8 0.00 0.29 0.28 68 1007.8
20260506185908 64 176 1.7 7.8 0.00 0.29 0.28 68 1007.7
20260506185137 64 218 1.7 5.2 0.00 0.29 0.28 70 1007.8
20260506184826 64 200 0.9 4.3 0.00 0.29 0.28 72 1007.9
20260506184528 63 250 1.7 4.3 0.00 0.29 0.28 74 1007.8
20260506184215 63 309 1.7 4.3 0.00 0.29 0.28 74 1007.8
20260506183911 63 215 0.9 4.3 0.00 0.29 0.28 77 1007.8
20260506183149 63 355 0.0 0.9 0.00 0.29 0.28 77 1007.9
20260506182424 63 92 0.0 4.3 0.00 0.29 0.28 77 1007.9
20260506182120 63 39 0.0 4.3 0.00 0.29 0.28 78 1007.9
20260506181824 63 102 0.0 4.3 0.00 0.29 0.28 78 1007.9
20260506180634 63 117 0.0 2.6 0.00 0.29 0.28 78 1007.9
20260506180325 63 86 0.9 2.6 0.00 0.29 0.28 78 1007.9
20260506180027 63 81 0.0 2.6 0.00 0.29 0.28 78 1007.9
20260506175718 63 67 0.0 1.7 0.00 0.29 0.28 78 1008.1
20260506175415 63 59 0.0 0.9 0.00 0.29 0.28 78 1008.0
20260506175103 63 84 0.0 0.9 0.00 0.29 0.28 78 1008.0
20260506174803 62 84 0.0 0.9 0.00 0.29 0.28 78 1008.0
20260506174500 62 87 0.9 2.6 0.00 0.29 0.28 78 1008.0
20260506174156 62 71 0.9 2.6 0.00 0.29 0.28 78 1008.0
20260506173854 62 101 0.0 2.6 0.00 0.29 0.28 78 1007.9
20260506173544 62 124 0.0 1.7 0.00 0.29 0.28 78 1007.9
20260506173241 62 101 0.0 1.7 0.00 0.29 0.28 78 1007.9
20260506172935 62 86 0.0 1.7 0.00 0.29 0.28 78 1007.9
20260506172626 61 97 0.0 1.7 0.00 0.29 0.28 78 1008.1
20260506172316 61 101 0.0 0.9 0.00 0.29 0.28 78 1008.0
20260506170705 61 74 0.0 0.0 0.00 0.29 0.28 77 1008.1
20260506170408 61 80 0.0 0.0 0.00 0.29 0.28 77 1008.2
20260506170105 61 81 0.0 0.0 0.00 0.29 0.28 76 1008.1
20260506165754 61 323 0.0 0.0 0.00 0.29 0.28 76 1008.2
20260506165449 61 323 0.0 0.0 0.00 0.29 0.28 76 1008.1
20260506165145 61 331 0.0 0.9 0.00 0.29 0.28 76 1008.2
20260506164845 61 322 0.0 0.9 0.00 0.29 0.28 76 1008.2
20260506164545 61 32 0.0 0.0 0.00 0.29 0.28 76 1008.1
20260506164235 61 39 0.0 1.7 0.00 0.29 0.28 76 1008.0
20260506163924 61 13 0.0 1.7 0.00 0.29 0.28 76 1008.1
20260506162751 61 305 0.0 1.7 0.00 0.29 0.28 76 1008.0
20260506162039 62 5 0.0 1.7 0.00 0.29 0.28 77 1008.2
20260506160844 61 113 0.0 0.0 0.00 0.29 0.28 77 1008.0
20260506160548 61 113 0.0 2.6 0.00 0.29 0.28 77 1008.0
20260506160251 61 175 0.0 5.2 0.00 0.29 0.28 77 1008.1
20260506155945 61 169 0.0 5.2 0.00 0.29 0.28 77 1008.1
20260506155636 61 246 0.0 5.2 0.00 0.29 0.28 77 1008.1
20260506155327 61 269 0.9 5.2 0.00 0.29 0.28 77 1008.0
20260506155030 61 253 0.9 5.2 0.00 0.29 0.28 77 1007.8
20260506154300 61 236 0.0 0.9 0.00 0.29 0.28 77 1007.9
20260506154004 61 119 0.0 0.0 0.00 0.29 0.28 77 1007.9
20260506153243 61 300 0.0 0.0 0.00 0.29 0.28 77 1007.9
20260506152940 61 300 0.0 0.0 0.00 0.29 0.28 77 1007.9
20260506152218 61 300 0.0 0.0 0.00 0.29 0.28 76 1008.1
20260506151907 61 313 0.0 0.0 0.00 0.29 0.28 76 1008.0
20260506151136 61 11 0.0 0.9 0.04 0.29 0.28 74 1007.6
20260506150824 61 301 0.0 0.9 0.05 0.29 0.28 74 1007.5
20260506150512 61 294 0.0 0.9 0.06 0.29 0.28 74 1007.6
20260506150215 61 9 0.0 0.0 0.08 0.29 0.28 74 1007.5
20260506145441 61 336 0.0 0.0 0.09 0.27 0.27 74 1007.8
20260506145140 61 286 0.0 0.0 0.17 0.27 0.27 74 1008.1
20260506144831 61 286 0.0 0.9 0.19 0.26 0.27 73 1008.1
20260506144526 61 190 0.0 0.0 0.09 0.26 0.27 71 1008.1
20260506144226 61 173 0.0 0.0 0.15 0.26 0.26 71 1008.0
20260506143456 61 143 0.0 4.3 0.12 0.24 0.24 70 1008.3
20260506142737 60 220 0.0 4.3 0.16 0.23 0.23 69 1008.5
20260506142426 61 167 0.0 4.3 0.21 0.21 0.21 69 1008.5
20260506142115 61 192 0.0 4.3 0.16 0.21 0.21 68 1008.5
20260506141801 61 185 0.0 4.3 0.16 0.19 0.20 69 1008.7
20260506141458 61 210 0.0 2.6 0.15 0.19 0.19 68 1008.7
20260506141157 61 134 0.0 0.0 0.17 0.18 0.18 68 1008.7
20260506140850 61 109 0.9 7.0 0.21 0.16 0.18 68 1008.6
20260506140126 61 134 0.9 7.0 0.27 0.13 0.13 68 1008.5
20260506135819 61 220 0.9 7.0 0.13 0.12 0.13 68 1008.6
20260506135510 61 198 1.7 7.0 0.35 0.12 0.12 68 1008.6
20260506134739 61 167 1.7 5.2 0.04 0.09 0.10 68 1008.4
20260506134438 61 214 1.7 5.2 0.05 0.09 0.10 68 1008.3
20260506133709 61 244 0.9 4.3 0.06 0.09 0.10 68 1008.3
20260506132516 60 150 0.0 1.7 0.08 0.09 0.09 67 1008.3
20260506132216 60 232 0.0 0.0 0.09 0.08 0.08 67 1008.3
20260506131906 60 231 0.0 0.0 0.10 0.08 0.08 67 1008.3
20260506130726 61 39 0.0 1.7 0.00 0.06 0.06 66 1008.2
20260506125951 61 290 0.0 0.0 0.00 0.06 0.06 66 1008.6
20260506125652 61 299 0.0 0.0 0.00 0.06 0.06 66 1008.5
20260506125350 61 224 0.0 0.0 0.00 0.06 0.06 66 1008.4
20260506125049 61 173 0.0 0.0 0.00 0.06 0.06 66 1008.4
20260506124339 61 248 0.0 0.0 0.00 0.06 0.06 66 1008.3
20260506123150 61 123 0.0 1.7 0.00 0.04 0.05 66 1008.4
20260506122846 61 67 0.0 0.9 0.00 0.04 0.05 66 1008.5
20260506122546 61 246 0.0 0.9 0.04 0.04 0.05 66 1008.6
20260506122250 61 218 0.0 0.0 0.04 0.04 0.05 65 1008.7
20260506121534 61 81 0.0 0.0 0.04 0.04 0.05 65 1008.6
20260506121229 61 81 0.0 0.0 0.04 0.04 0.05 65 1008.6
20260506120925 61 81 0.0 0.0 0.04 0.04 0.05 65 1008.6
20260506120618 61 81 0.0 0.0 0.05 0.04 0.04 64 1008.7
20260506120317 61 81 0.0 0.0 0.06 0.04 0.04 65 1008.8
20260506120019 61 81 0.0 0.0 0.06 0.04 0.04 64 1008.7
20260506115717 61 80 0.0 0.0 0.06 0.04 0.04 65 1008.8
20260506114946 61 63 0.0 0.0 0.06 0.03 0.03 64 1008.7
20260506114639 62 63 0.0 3.5 0.06 0.03 0.03 64 1008.7
20260506114326 62 152 0.9 3.5 0.04 0.02 0.02 63 1008.9
20260506114019 62 161 0.0 2.6 0.04 0.02 0.02 63 1008.9
20260506113251 63 156 0.0 2.6 0.00 0.01 0.01 62 1008.6
20260506112946 63 194 0.0 2.6 0.00 0.01 0.01 61 1008.7
20260506112640 63 216 0.0 0.0 0.00 0.01 0.01 60 1008.5
20260506112341 64 117 0.0 6.1 0.00 0.01 0.01 60 1008.5
20260506112042 64 236 0.9 6.1 0.00 0.01 0.01 59 1008.5
20260506111743 64 186 0.9 6.1 0.00 0.00 0.00 58 1008.3
20260506111433 64 222 0.9 6.1 0.00 0.00 0.00 57 1008.3